Home   Weather   Bad Kissingen   Past weeks

Flag for Germany Past Weather in Bad Kissingen, Bavaria, Germany — Yesterday and Last 2 Weeks

40 °F

Passing clouds.

Feels Like: 38 °F
Forecast: 36 / 48 °F
Wind: 3 mph from Southwest

Location: Illesheim

Current Time: Oct 21, 2016 at 10:14:05 PM

Latest Report: Oct 21, 2016 at 8:58 PM

Visibility: N/A

Pressure: 29.99 "Hg

Humidity: 97%

Dew Point: 40 °F

Location of Bad KissingenLocation

Past Weather in Bad Kissingen — Graph


Bad Kissingen Temperature Yesterday

Maximum temperature yesterday: 45 °F (at 12:58 PM)
Minimum temperature yesterday: 41 °F (at 6:01 AM)
Average temperature yesterday: 43 °F

High & Low Weather Summary for the Past Weeks

High68 °F (Oct 16, 2:03 PM)100% (Oct 6, 11:58 PM)30.31 "Hg (Oct 6, 11:58 PM)
Low30 °F (Oct 13, 3:58 AM)49% (Oct 16, 2:03 PM)29.72 "Hg (Oct 14, 5:58 PM)
Average46 °F90%30.10 "Hg
* Reported Oct 6 8:58 PM — Oct 21 8:58 PM, Bad Kissingen, Weather by CustomWeather, © 2016

Note: Actual official high and low records may vary slightly from our data, if they occured in-between our weather recording intervals... More about our weather records


Bad Kissingen Weather History for the Previous 24 Hours

Scroll right to see more
Time TempWeatherWind HumidityBarometerVisibility
8:58 PM
Fri, Oct 21
40 °FPassing clouds.3 mph97%29.99 "HgN/A
7:58 PM39 °FPassing clouds.3 mph97%30.03 "HgN/A
6:58 PM42 °FMostly cloudy.3 mph96%30.03 "HgN/A
5:58 PM43 °FOvercast.8 mph90%30.01 "HgN/A
4:58 PM44 °FScattered clouds.6 mph86%30.01 "HgN/A
3:58 PM45 °FCloudy.6 mph88%30.00 "HgN/A
2:58 PM43 °FCloudy.5 mph93%30.00 "HgN/A
1:58 PM42 °FLight rain. Cloudy.7 mph91%30.01 "HgN/A
1:48 PM43 °FLight rain. Fog.8 mph93%29.98 "Hg5 mi
1:02 PM43 °FLight rain. More clouds than sun.7 mph93%29.98 "HgN/A
12:58 PM44 °FLight rain. Mostly cloudy.7 mph89%30.01 "HgN/A
12:51 PM45 °FLight rain. Partly sunny.8 mph87%29.98 "HgN/A
11:58 AM45 °FMostly cloudy.8 mph87%30.00 "HgN/A
11:01 AM45 °FMostly cloudy.8 mph87%29.96 "HgN/A
9:58 AM42 °FLow clouds.3 mph96%29.99 "HgN/A
7:58 AM40 °FLow clouds.9 mph100%29.98 "HgN/A
6:58 AM39 °FMostly cloudy.9 mph100%29.96 "HgN/A
5:58 AM41 °FOvercast.5 mph100%29.95 "HgN/A
5:50 AM39 °FOvercast.5 mph100%29.91 "HgN/A
4:58 AM39 °FPassing clouds.6 mph99%29.94 "HgN/A
3:58 AM41 °FOvercast.5 mph93%29.93 "HgN/A
3:46 AM41 °FOvercast.5 mph100%29.90 "HgN/A
2:58 AM40 °FLight rain. Mostly cloudy.3 mph98%29.93 "HgN/A
2:50 AM41 °FLight rain. Overcast.5 mph93%29.90 "HgN/A
1:58 AM41 °FLow clouds.2 mph100%29.92 "HgN/A
12:58 AM41 °FLight rain. Fog.No wind97%29.92 "Hg6 mi
12:01 AM43 °FRain. Fog.5 mph100%29.89 "Hg5 mi
11:54 PM
Thu, Oct 20
43 °FRain. Fog.3 mph100%29.89 "Hg4 mi
11:00 PM43 °FLight rain. Fog.2 mph100%29.90 "Hg4 mi
10:58 PM42 °FLight rain. Fog.2 mph100%29.93 "Hg5 mi
Weather by CustomWeather, © 2016

See weather overviewHow to use our weather pages